Retour au catalogue

FENGYUN 1C DEB

ActifPO
NORAD 31938·DEBRIS·🇨🇳 China

Lancé May 10, 1999 depuis Taiyuan Satellite Launch Center

Loading…

Prochains Passages (prochaines 24 heures)

TLE

FraisSource: Space-Track

Époque: Sep 13, 2026, 11:38 UTC

1 31938U 99025CMP 26256.48499584  .00003722  00000-0  25751-3 0  9998
2 31938  98.8950 331.2958 0142967 254.6136 103.9250 14.98550400 32407

Suivez FENGYUN 1C DEB en temps réel avec AllMySat

Download on the App Store